[[{"header":{"parameterUnit":"m.s-1","parameterCategory":1,"la1":30.2992,"la2":30.254,"lo1":-89.0895,"lo2":-89.0443,"dy":0.0025,"dx":0.0025,"nx":19,"ny":19,"refTime":"2026-04-20T09:00:00:Z","depth":0,"parameterNumber":2,"parameterNumberName":"U-component_of_WINDS"},"data":[0,0,0,-3.9123,-3.9125,-3.9181,-3.9181,-3.9274,-3.9275,0,0,0,0,0,0,0,0,0,0,0,-3.912,-3.9121,-3.9123,-3.9125,-3.9181,-3.9181,-3.9273,-3.9275,0,0,0,0,0,0,0,0,0,0,0,-3.912,-3.9121,-3.9123,-3.9125,-3.9181,-3.9181,-3.9273,-3.9223,0,0,0,0,0,0,0,0,0,0,-3.9165,-3.9176,-3.9121,-3.9123,-3.9125,-3.9181,-3.9181,-3.922,-3.9226,-3.9257,0,-3.929,0,-3.9284,-3.9282,-3.9283,0,0,0,-3.9114,-3.9171,-3.9174,-3.9123,-3.9126,-3.9181,-3.9153,-3.9223,-3.923,-3.9265,-3.9291,-3.9294,-3.9285,-3.9283,-3.9284,-3.9498,-3.95,0,0,-3.9111,-3.9138,-3.917,-3.9179,-3.9173,-3.9151,-3.9155,-3.9227,-3.9256,-3.9291,-3.9295,-3.9287,-3.9284,-3.9285,-3.9497,-3.9499,0,0,0,-3.9109,-3.9136,-3.9136,-3.9176,-3.9184,-3.9153,-3.9157,-3.9253,-3.9251,-3.9296,-3.9288,-3.9284,-3.9286,-3.9495,-3.9498,-3.9596,0,0,0,-3.9107,-3.9135,-3.9136,-3.9152,-3.9184,-3.922,-3.9182,-3.9246,-3.9253,-3.9288,-3.9284,-3.9287,-3.9494,-3.9497,-3.9589,-3.9638,0,0,0,-3.9112,-3.9135,-3.9148,-3.9154,-3.9179,-3.9218,-3.922,-3.9247,-3.9249,-3.9283,-3.9287,-3.9492,-3.9496,-3.9584,-3.9628,-3.97,0,0,0,-3.9125,-3.9236,-3.915,-3.9271,-3.9179,-3.9279,-3.9219,-3.9292,-3.9333,-3.9285,-3.9494,-3.9497,-3.9582,-3.9623,-3.9694,-3.9764,-3.9796,0,0,-3.928,-3.9256,-3.9325,-3.9249,-3.9372,-3.9268,-3.9404,-3.9417,-3.9396,-3.9465,-3.947,-3.9592,-3.9628,-3.9699,-3.997,-3.9996,0,0,0,-3.9383,-3.9432,-3.9459,-3.9499,-3.9511,-3.9524,-3.9513,-3.9517,-3.9574,-3.9438,-3.9637,-3.9658,-3.9698,-3.973,-3.9752,-3.9784,-3.9514,-3.9513,-3.9513,-3.964,-3.9607,-3.9717,-3.969,-3.973,-3.9716,-3.9744,-3.9747,-3.9703,-3.9751,-3.9771,-3.9939,-3.9978,-3.9994,-4.0028,-3.9806,-3.9807,-3.9807,-3.9807,-3.9863,-3.9927,-3.9864,-3.9949,-3.9912,-3.9983,-3.9973,-3.9939,-3.9998,-3.9922,-3.9956,-3.9875,-4.0024,-4.0051,-3.9815,-3.9813,-3.9812,-3.9812,-3.9811,-4.0027,-4.0051,-4.0054,-4.0106,-4.0151,-4.0119,-4.0178,-4.0143,-4.0111,-4.0145,-4.016,-4.0159,-4.0151,-4.0155,-4.0156,-4.0156,-4.0157,-4.0157,-4.0157,-4.0195,-4.0195,-4.0249,-4.027,-4.0289,-4.031,-4.0297,-4.0315,-4.0326,-4.0295,-4.0295,-4.0245,-4.0045,-3.9994,-4.0166,-4.0165,-4.0164,-4.0163,-4.0162,-4.0431,-4.0371,-4.0455,-4.0475,-4.0494,-4.0539,-4.0493,-4.0533,-4.0543,-4.0572,-4.0515,-4.0373,-4.0346,-4.0328,-4.0286,-4.0523,-4.0523,-4.0523,-4.0523,-4.0568,-4.055,-4.0627,-4.066,-4.0688,-4.0654,-4.0748,-4.0738,-4.0718,-4.0721,-4.0682,-4.0624,-4.0608,-4.059,-4.0566,-4.0526,-4.0819,-4.0819,-4.082,-4.071,-4.0693,-4.078,-4.0759,-4.0771,-4.0782,-4.0868,-4.0908,-4.0873,-4.0831,-4.0723,-4.071,-4.0616,-4.0587,-4.0542,-4.0506,-4.0432,0,0]},{"header":{"parameterUnit":"m.s-1","parameterCategory":1,"la1":30.2992,"la2":30.254,"lo1":-89.0895,"lo2":-89.0443,"dy":0.0025,"dx":0.0025,"nx":19,"ny":19,"refTime":"2026-04-20T09:00:00:Z","depth":0,"parameterNumber":3,"parameterNumberName":"V-component_of_WINDS"},"data":[0,0,0,2.2748,2.2748,2.2725,2.2725,2.2714,2.2714,0,0,0,0,0,0,0,0,0,0,0,2.2767,2.2767,2.2748,2.2748,2.2725,2.2725,2.2714,2.2714,0,0,0,0,0,0,0,0,0,0,0,2.2766,2.2767,2.2767,2.2748,2.2725,2.2724,2.2714,2.2724,0,0,0,0,0,0,0,0,0,0,2.2744,2.2772,2.2767,2.2767,2.2748,2.2725,2.2724,2.2725,2.2724,2.2732,0,2.2743,0,2.2729,2.2714,2.2714,0,0,0,2.2739,2.2773,2.2756,2.2767,2.2748,2.2725,2.2733,2.2724,2.2723,2.2731,2.2743,2.2742,2.2728,2.2714,2.2714,2.2794,2.2795,0,0,2.274,2.2769,2.2757,2.2756,2.2761,2.2733,2.2732,2.2723,2.2738,2.2743,2.2742,2.2728,2.2714,2.2714,2.2793,2.2794,0,0,0,2.275,2.277,2.2753,2.2757,2.2752,2.2733,2.2731,2.2738,2.273,2.2741,2.2728,2.2714,2.2715,2.2793,2.2794,2.2859,0,0,0,2.275,2.2775,2.2754,2.2771,2.2752,2.2745,2.2747,2.2731,2.2729,2.2728,2.2714,2.2715,2.2792,2.2793,2.2855,2.2885,0,0,0,2.2764,2.2777,2.2778,2.2773,2.2764,2.2744,2.2735,2.273,2.2721,2.2714,2.2715,2.2791,2.2793,2.2852,2.2879,2.2913,0,0,0,2.2787,2.2836,2.2779,2.2829,2.2764,2.2785,2.2735,2.2749,2.2752,2.2714,2.2792,2.2794,2.2851,2.2876,2.291,2.2945,2.2963,0,0,2.2865,2.2847,2.2874,2.2822,2.2861,2.2787,2.2835,2.281,2.2783,2.2792,2.2794,2.2857,2.2879,2.2912,2.3057,2.3072,0,0,0,2.2908,2.2928,2.2932,2.2936,2.2919,2.2905,2.2871,2.2861,2.2867,2.2794,2.2878,2.289,2.2909,2.2924,2.2937,2.295,2.2803,2.2802,2.2802,2.3058,2.3022,2.3064,2.3026,2.303,2.2994,2.2993,2.2975,2.2937,2.2958,2.2959,2.3052,2.3071,2.308,2.3095,2.2977,2.2977,2.2978,2.2978,2.3167,2.3189,2.3139,2.3162,2.3124,2.3142,2.311,2.3083,2.3094,2.3048,2.3062,2.3013,2.3097,2.3108,2.2982,2.2981,2.2981,2.298,2.298,2.326,2.3264,2.3252,2.3254,2.3259,2.3219,2.3232,2.3197,2.3164,2.3179,2.3176,2.3175,2.3167,2.318,2.3181,2.3181,2.3181,2.3181,2.3182,2.3359,2.3344,2.336,2.3346,2.3344,2.3336,2.3302,2.3298,2.3285,2.3258,2.3258,2.3218,2.3113,2.3087,2.3186,2.3186,2.3185,2.3184,2.3184,2.348,2.3447,2.3471,2.3469,2.345,2.3457,2.3414,2.341,2.3402,2.341,2.3367,2.3296,2.3274,2.3264,2.3242,2.3375,2.3375,2.3375,2.3375,2.3556,2.3542,2.3559,2.3558,2.3553,2.3516,2.3544,2.3518,2.3485,2.3478,2.3454,2.3422,2.3413,2.3397,2.3384,2.3362,2.3523,2.3524,2.3524,2.3627,2.3612,2.3642,2.3611,2.3594,2.358,2.3605,2.3605,2.3561,2.3529,2.3471,2.3465,2.3413,2.3398,2.3362,2.3343,2.3302,0,0]}]]